This demonstration page uses our WeatherBlox Daily Observations layout. Learn more.

Left ArrowRight Arrow

Hourly Observations for November 3, 2020

Temp ( °F °C ) Dew Point ( °F °C ) Humidity (%) Winds ( mph kmh ) Pressure ( in mb ) Visibility ( mi km ) Precip ( " mm )
12:15 am 00:15 Clear 37 3 25 -4 60 60 SSW 7 11 30.22 1024 10 16 N/A
12:35 am 00:35 Clear 37 3 25 -4 60 60 SSW 8 13 30.20 1023 10 16 N/A
12:55 am 00:55 Clear 37 3 25 -4 60 60 SW 6 9 30.20 1023 10 16 N/A
1:15 am 01:15 Clear 37 3 25 -4 60 60 SW 7 11 30.20 1023 10 16 N/A
1:35 am 01:35 Clear 36 2 27 -3 70 70 SSW 8 13 30.21 1023 10 16 N/A
1:55 am 01:55 Clear 36 2 27 -3 70 70 SW 7 11 30.21 1023 10 16 N/A
2:15 am 02:15 Clear 36 2 27 -3 70 70 SW 6 9 30.21 1023 10 16 N/A
2:35 am 02:35 Clear 36 2 27 -3 70 70 SSW 6 9 30.22 1023 10 16 N/A
2:55 am 02:55 Clear 36 2 27 -3 70 70 SSW 7 11 30.22 1023 10 16 N/A
3:15 am 03:15 Clear 36 2 27 -3 70 70 SW 7 11 30.22 1023 10 16 N/A
3:35 am 03:35 Clear 36 2 28 -2 75 75 SSW 7 11 30.21 1023 10 16 N/A
3:55 am 03:55 Clear 36 2 28 -2 75 75 SW 6 9 30.21 1023 10 16 N/A
4:15 am 04:15 Clear 36 2 28 -2 75 75 SW 6 9 30.22 1023 10 16 N/A
4:35 am 04:35 Clear 36 2 28 -2 75 75 SSW 6 9 30.22 1023 10 16 N/A
4:55 am 04:55 Clear 34 1 28 -2 81 81 SSW 7 11 30.22 1023 10 16 N/A
5:15 am 05:15 Clear 36 2 28 -2 75 75 SSW 7 11 30.21 1023 10 16 N/A
5:35 am 05:35 Clear 36 2 28 -2 75 75 SSW 6 9 30.22 1023 10 16 N/A
5:55 am 05:55 Clear 34 1 30 -1 87 87 SSW 7 11 30.22 1023 10 16 N/A
6:15 am 06:15 Clear 34 1 30 -1 87 87 SSW 5 7 30.22 1023 10 16 N/A
6:35 am 06:35 Clear 34 1 30 -1 87 87 SSW 6 9 30.22 1023 10 16 N/A
6:55 am 06:55 Clear 34 1 30 -1 87 87 SSW 3 6 30.23 1024 10 16 N/A
7:15 am 07:15 Clear 34 1 30 -1 87 87 SSW 3 6 30.23 1024 10 16 N/A
7:35 am 07:35 Sunny 36 2 30 -1 81 81 SSW 5 7 30.23 1024 10 16 N/A
7:55 am 07:55 Sunny 36 2 32 undefined 87 87 SSW 5 7 30.24 1024 10 16 N/A
8:15 am 08:15 Sunny 39 4 32 undefined 75 75 N N/A 30.23 1024 10 16 N/A
8:35 am 08:35 Sunny 41 5 32 undefined 70 70 SSW 6 9 30.24 1024 10 16 N/A
8:55 am 08:55 Sunny 43 6 34 1 71 71 SSW 8 13 30.23 1024 10 16 N/A
9:35 am 09:35 Sunny 46 8 34 1 62 62 SSW 10 17 30.23 1024 10 16 N/A
9:55 am 09:55 Sunny 48 9 34 1 58 58 SSW 8 13 30.23 1024 10 16 N/A
10:15 am 10:15 Sunny 50 10 36 2 58 58 SSW 7 11 30.23 1024 10 16 N/A
10:35 am 10:35 Sunny 50 10 36 2 58 58 SSW 8 13 30.22 1023 10 16 N/A
10:55 am 10:55 Sunny 54 12 36 2 51 51 SSW 8 13 30.21 1023 10 16 N/A
11:15 am 11:15 Sunny 55 13 37 3 51 51 SSW 9 15 30.21 1023 10 16 N/A
11:35 am 11:35 Sunny 55 13 37 3 51 51 SSW 8 13 30.22 1023 10 16 N/A
11:55 am 11:55 Sunny 57 14 39 4 51 51 SSW 8 13 30.21 1023 10 16 N/A
12:15 pm 12:15 Sunny 59 15 39 4 48 48 SSW 8 13 30.19 1022 10 16 N/A
12:35 pm 12:35 Sunny 61 16 39 4 45 45 S 9 15 30.19 1022 10 16 N/A
12:55 pm 12:55 Sunny 61 16 39 4 45 45 SSW 10 17 30.19 1022 10 16 N/A
1:15 pm 13:15 Sunny 63 17 39 4 42 42 S 9 15 30.18 1022 10 16 N/A
1:35 pm 13:35 Sunny 63 17 39 4 42 42 SSW 10 17 30.18 1022 10 16 N/A
1:55 pm 13:55 Sunny 63 17 39 4 42 42 SW 10 17 30.17 1022 10 16 N/A
2:15 pm 14:15 Sunny 64 18 39 4 40 40 SW 13 20 30.16 1021 10 16 N/A
2:35 pm 14:35 Sunny 64 18 39 4 40 40 SSW 13 20 30.15 1021 10 16 N/A
2:55 pm 14:55 Sunny 64 18 39 4 40 40 SW 12 19 30.15 1021 10 16 N/A
3:15 pm 15:15 Sunny 66 19 39 4 37 37 SW 10 17 30.14 1021 10 16 N/A
3:35 pm 15:35 Sunny 64 18 39 4 40 40 SW 12 19 30.15 1021 10 16 N/A
3:55 pm 15:55 Sunny 64 18 39 4 40 40 SW 8 13 30.15 1021 10 16 N/A
4:15 pm 16:15 Sunny 64 18 41 5 43 43 SW 10 17 30.14 1021 10 16 N/A
4:35 pm 16:35 Sunny 64 18 41 5 43 43 SSW 9 15 30.14 1021 10 16 N/A
4:55 pm 16:55 Sunny 63 17 39 4 42 42 SSW 8 13 30.15 1021 10 16 N/A
5:15 pm 17:15 Sunny 61 16 39 4 45 45 S 6 9 30.15 1021 10 16 N/A
5:35 pm 17:35 Sunny 59 15 39 4 48 48 S 6 9 30.15 1021 10 16 N/A
5:55 pm 17:55 Clear 57 14 39 4 51 51 S 7 11 30.17 1022 10 16 N/A
6:15 pm 18:15 Clear 55 13 39 4 55 55 S 7 11 30.17 1022 10 16 N/A
6:35 pm 18:35 Clear 55 13 39 4 55 55 S 7 11 30.17 1022 10 16 N/A
6:55 pm 18:55 Clear 55 13 39 4 55 55 S 7 11 30.17 1022 10 16 N/A
7:15 pm 19:15 Clear 54 12 39 4 58 58 S 5 7 30.19 1022 10 16 N/A
7:35 pm 19:35 Clear 52 11 37 3 58 58 S 6 9 30.20 1023 10 16 N/A
7:55 pm 19:55 Clear 52 11 37 3 58 58 S 6 9 30.20 1023 10 16 N/A
8:15 pm 20:15 Clear 50 10 37 3 62 62 S 6 9 30.20 1023 10 16 N/A
8:35 pm 20:35 Clear 50 10 37 3 62 62 S 7 11 30.20 1023 10 16 N/A
8:55 pm 20:55 Clear 50 10 37 3 62 62 S 6 9 30.20 1023 10 16 N/A
9:15 pm 21:15 Clear 50 10 37 3 62 62 S 6 9 30.20 1023 10 16 N/A
9:35 pm 21:35 Clear 48 9 37 3 66 66 S 7 11 30.20 1023 10 16 N/A
9:55 pm 21:55 Clear 48 9 39 4 71 71 SSE 7 11 30.21 1023 10 16 N/A
10:15 pm 22:15 Clear 46 8 39 4 76 76 S 6 9 30.22 1023 10 16 N/A
10:35 pm 22:35 Clear 46 8 39 4 76 76 S 7 11 30.22 1023 10 16 N/A
10:55 pm 22:55 Clear 48 9 39 4 71 71 S 7 11 30.22 1023 10 16 N/A
11:15 pm 23:15 Clear 46 8 39 4 76 76 S 6 9 30.23 1024 10 16 N/A
11:35 pm 23:35 Clear 46 8 39 4 76 76 S 6 9 30.23 1024 10 16 N/A
11:55 pm 23:55 Clear 45 7 39 4 81 81 S 7 11 30.23 1024 10 16 N/A

Powered by AerisWeather